Location: Nag� el Ma?a??a
(24.0667°N, 32.8833°E)
Time: 17:12:48
(UTC+00:00)

USA 290 - Pass Details

Date: 25 September 2021
Orbit: 397 x 413 km, 73.6° (Epoch: 06 October)

Event Time Altitude Azimuth Distance (km) Brightness Sun altitude
Exits shadow 02:16:41 41° 342° (NNW) 614 2.9 -19.4°
Drops below altitude 10° 02:19:02 10° 6° (N) 1,482 5.2 -18.8°
Sets 02:21:06 0° 10° (N) 2,348 6.3 -18.4°
